When you browse on this site, cookies collect data to enhance your experience and personalize the content and advertising you see.
Visit our Privacy Policy to learn more. By continuing to use the site, you agree to this use of cookies and data.
  • In Spain
  • List of Countries
  • For 7 days
  • Water Temperature
  • Weather Map
  • Weather Widgets
  • user-avatar
    Login

    Hourly Weather Taldy Kurgan

    Today, 4 June, Thursday

    Time Temperature Precipitation Wind Pressure Humidity
    00:00 +21°C° 0 mm 2 mps 708 mmHg 37%
    01:00 +21°C° 0 mm 2 mps 708 mmHg 39%
    02:00 +20°C° 0 mm 2 mps 708 mmHg 41%
    03:00 +21°C° 0 mm 2 mps 708 mmHg 40%
    04:00 +21°C° 0 mm 2 mps 708 mmHg 39%
    05:00 +23°C° 0 mm 2 mps 708 mmHg 38%
    06:00 +26°C° 0 mm 2 mps 708 mmHg 34%
    07:00 +28°C° 0 mm 2 mps 708 mmHg 30%
    08:00 +31°C° 0 mm 1 mps 709 mmHg 25%
    09:00 +33°C° 0 mm 1 mps 709 mmHg 22%
    10:00 +34°C° 0 mm 1 mps 709 mmHg 19%
    11:00 +36°C° 0 mm 1 mps 708 mmHg 16%
    12:00 +38°C° 0 mm 2 mps 708 mmHg 15%
    13:00 +38°C° 0 mm 3 mps 707 mmHg 14%
    14:00 +40°C° 0 mm 4 mps 706 mmHg 14%
    15:00 +37°C° 0 mm 5 mps 706 mmHg 18%
    16:00 +34°C° 0 mm 5 mps 705 mmHg 22%
    17:00 +32°C° 0 mm 5 mps 705 mmHg 26%
    18:00 +30°C° 0 mm 5 mps 705 mmHg 29%
    19:00 +29°C° 0 mm 5 mps 704 mmHg 31%
    20:00 +27°C° 0 mm 5 mps 704 mmHg 34%
    21:00 +27°C° 0.1 mm 6 mps 704 mmHg 37%
    22:00 +26°C° 0.1 mm 7 mps 704 mmHg 40%
    23:00 +26°C° 0.1 mm 8 mps 705 mmHg 43%

    Tomorrow, 5 June, Friday

    Time Temperature Precipitation Wind Pressure Humidity
    00:00 +24°C° 0 mm 7 mps 704 mmHg 42%
    01:00 +24°C° 0 mm 6 mps 704 mmHg 41%
    02:00 +25°C° 0 mm 5 mps 704 mmHg 40%
    03:00 +22°C° 0.1 mm 5 mps 705 mmHg 48%
    04:00 +21°C° 0.1 mm 4 mps 705 mmHg 56%
    05:00 +19°C° 0.1 mm 3 mps 706 mmHg 64%
    06:00 +19°C° 0.2 mm 4 mps 706 mmHg 64%
    07:00 +20°C° 0.2 mm 5 mps 707 mmHg 63%
    08:00 +20°C° 0.2 mm 6 mps 708 mmHg 63%
    09:00 +20°C° 0.1 mm 7 mps 709 mmHg 57%
    10:00 +20°C° 0.1 mm 8 mps 710 mmHg 50%
    11:00 +21°C° 0.1 mm 8 mps 711 mmHg 44%
    12:00 +22°C° 0 mm 8 mps 711 mmHg 39%
    13:00 +23°C° 0 mm 7 mps 712 mmHg 34%
    14:00 +23°C° 0 mm 7 mps 712 mmHg 29%
    15:00 +23°C° 0 mm 7 mps 712 mmHg 27%
    16:00 +22°C° 0 mm 7 mps 712 mmHg 26%
    17:00 +22°C° 0 mm 7 mps 712 mmHg 25%
    18:00 +20°C° 0 mm 6 mps 712 mmHg 26%
    19:00 +17°C° 0 mm 5 mps 712 mmHg 27%
    20:00 +15°C° 0 mm 5 mps 712 mmHg 28%
    21:00 +14°C° 0 mm 4 mps 712 mmHg 30%
    22:00 +13°C° 0 mm 4 mps 712 mmHg 31%
    23:00 +12°C° 0 mm 3 mps 713 mmHg 33%

    Day after tomorrow, 6 June, Saturday

    Time Temperature Precipitation Wind Pressure Humidity
    00:00 +12°C° 0 mm 3 mps 712 mmHg 36%
    01:00 +11°C° 0 mm 4 mps 712 mmHg 38%
    02:00 +11°C° 0 mm 4 mps 712 mmHg 40%
    03:00 +11°C° 0 mm 4 mps 713 mmHg 41%
    04:00 +11°C° 0 mm 4 mps 713 mmHg 42%
    05:00 +10°C° 0 mm 5 mps 714 mmHg 43%
    06:00 +14°C° 0 mm 6 mps 714 mmHg 38%
    07:00 +16°C° 0 mm 7 mps 714 mmHg 34%
    08:00 +18°C° 0 mm 9 mps 715 mmHg 29%
    09:00 +19°C° 0 mm 9 mps 715 mmHg 27%
    10:00 +21°C° 0 mm 9 mps 715 mmHg 24%
    11:00 +22°C° 0 mm 9 mps 715 mmHg 22%
    12:00 +23°C° 0 mm 9 mps 715 mmHg 22%
    13:00 +23°C° 0 mm 10 mps 715 mmHg 22%
    14:00 +24°C° 0 mm 10 mps 715 mmHg 22%
    15:00 +23°C° 0 mm 10 mps 715 mmHg 21%
    16:00 +23°C° 0 mm 10 mps 714 mmHg 20%
    17:00 +23°C° 0 mm 10 mps 714 mmHg 18%
    18:00 +21°C° 0 mm 9 mps 714 mmHg 20%
    19:00 +18°C° 0 mm 8 mps 714 mmHg 22%
    20:00 +16°C° 0 mm 7 mps 714 mmHg 23%
    21:00 +16°C° 0 mm 7 mps 714 mmHg 27%
    22:00 +15°C° 0 mm 6 mps 714 mmHg 30%
    23:00 +14°C° 0 mm 6 mps 714 mmHg 33%

    7 June, Sunday

    Time Temperature Precipitation Wind Pressure Humidity
    00:00 +13°C° 0 mm 5 mps 714 mmHg 37%
    01:00 +12°C° 0 mm 4 mps 713 mmHg 42%
    02:00 +11°C° 0 mm 3 mps 713 mmHg 46%
    03:00 +10°C° 0 mm 3 mps 713 mmHg 46%
    04:00 +10°C° 0 mm 2 mps 713 mmHg 46%
    05:00 +10°C° 0 mm 2 mps 713 mmHg 47%
    06:00 +13°C° 0 mm 3 mps 714 mmHg 40%
    07:00 +17°C° 0 mm 4 mps 714 mmHg 33%
    08:00 +21°C° 0 mm 5 mps 714 mmHg 26%
    09:00 +22°C° 0 mm 6 mps 714 mmHg 23%
    10:00 +24°C° 0 mm 6 mps 714 mmHg 21%
    11:00 +27°C° 0 mm 7 mps 714 mmHg 19%
    12:00 +28°C° 0 mm 7 mps 714 mmHg 18%
    13:00 +28°C° 0 mm 8 mps 714 mmHg 17%
    14:00 +29°C° 0 mm 8 mps 713 mmHg 16%
    15:00 +28°C° 0 mm 8 mps 713 mmHg 16%
    16:00 +28°C° 0 mm 8 mps 713 mmHg 17%
    17:00 +27°C° 0 mm 8 mps 713 mmHg 17%
    18:00 +24°C° 0 mm 7 mps 713 mmHg 19%
    19:00 +22°C° 0 mm 6 mps 713 mmHg 22%
    20:00 +20°C° 0 mm 5 mps 713 mmHg 24%
    21:00 +19°C° 0 mm 5 mps 713 mmHg 27%
    22:00 +17°C° 0 mm 4 mps 712 mmHg 30%
    23:00 +15°C° 0 mm 4 mps 712 mmHg 32%

    8 June, Monday

    Time Temperature Precipitation Wind Pressure Humidity
    00:00 +14°C° 0 mm 4 mps 712 mmHg 37%
    01:00 +14°C° 0 mm 3 mps 712 mmHg 41%
    02:00 +13°C° 0 mm 3 mps 712 mmHg 46%
    03:00 +13°C° 0 mm 3 mps 712 mmHg 47%
    04:00 +13°C° 0 mm 2 mps 712 mmHg 49%
    05:00 +13°C° 0 mm 2 mps 712 mmHg 51%
    06:00 +16°C° 0 mm 3 mps 712 mmHg 45%
    07:00 +19°C° 0 mm 3 mps 712 mmHg 38%
    08:00 +22°C° 0 mm 4 mps 713 mmHg 32%
    09:00 +25°C° 0 mm 4 mps 712 mmHg 27%
    10:00 +27°C° 0 mm 3 mps 712 mmHg 23%
    11:00 +29°C° 0 mm 3 mps 712 mmHg 18%
    12:00 +30°C° 0 mm 3 mps 712 mmHg 16%
    13:00 +30°C° 0 mm 3 mps 712 mmHg 15%
    14:00 +31°C° 0 mm 2 mps 711 mmHg 13%
    15:00 +31°C° 0 mm 3 mps 711 mmHg 13%
    16:00 +32°C° 0 mm 4 mps 711 mmHg 14%
    17:00 +30°C° 0 mm 5 mps 710 mmHg 15%
    18:00 +28°C° 0 mm 5 mps 710 mmHg 17%
    19:00 +25°C° 0 mm 5 mps 710 mmHg 20%
    20:00 +22°C° 0 mm 5 mps 710 mmHg 22%
    21:00 +20°C° 0 mm 4 mps 710 mmHg 25%
    22:00 +18°C° 0 mm 3 mps 710 mmHg 28%
    23:00 +17°C° 0 mm 2 mps 710 mmHg 31%

    9 June, Tuesday

    Time Temperature Precipitation Wind Pressure Humidity
    00:00 +16°C° 0 mm 2 mps 710 mmHg 33%
    01:00 +15°C° 0 mm 2 mps 710 mmHg 36%
    02:00 +15°C° 0 mm 2 mps 710 mmHg 38%
    03:00 +15°C° 0 mm 2 mps 710 mmHg 41%
    04:00 +15°C° 0 mm 2 mps 710 mmHg 43%
    05:00 +15°C° 0 mm 2 mps 710 mmHg 46%
    06:00 +18°C° 0 mm 3 mps 711 mmHg 41%
    07:00 +20°C° 0 mm 4 mps 711 mmHg 36%
    08:00 +23°C° 0 mm 4 mps 712 mmHg 32%
    09:00 +26°C° 0 mm 5 mps 712 mmHg 28%
    10:00 +28°C° 0 mm 5 mps 712 mmHg 24%
    11:00 +30°C° 0 mm 6 mps 712 mmHg 20%
    12:00 +30°C° 0 mm 6 mps 712 mmHg 19%
    13:00 +32°C° 0 mm 6 mps 712 mmHg 18%
    14:00 +32°C° 0 mm 6 mps 712 mmHg 16%
    15:00 +32°C° 0 mm 6 mps 711 mmHg 17%
    16:00 +30°C° 0 mm 6 mps 711 mmHg 17%
    17:00 +29°C° 0 mm 6 mps 711 mmHg 17%
    18:00 +26°C° 0 mm 5 mps 711 mmHg 21%
    19:00 +23°C° 0 mm 4 mps 711 mmHg 24%
    20:00 +20°C° 0 mm 3 mps 711 mmHg 27%
    21:00 +19°C° 0 mm 3 mps 711 mmHg 31%
    22:00 +18°C° 0 mm 3 mps 711 mmHg 35%
    23:00 +17°C° 0 mm 2 mps 711 mmHg 38%
    Show more